Weather History for Trinidad, CO

Change the Weather History Date:

Tuesday, November 6, 2012

  Actual Average Record
Temperature  
Mean Temperature 52 °F 45 °F  
Max Temperature 66 °F 61 °F 78 °F (1988)
Min Temperature 38 °F 29 °F 10 °F (1959)
Degree Days  
Heating Degree Days 13 20  
Month to date heating degree days 83 114  
Since 1 July heating degree days 551 615  
Cooling Degree Days 0 0  
Month to date cooling degree days 0 0  
Year to date cooling degree days 1175 719  
Moisture  
Dew Point 22 °F    
Average Humidity 35    
Maximum Humidity 48    
Minimum Humidity 22    
Precipitation  
Precipitation 0.00 in 0.03 in 0.29 in (1968)
Month to date precipitation 0.00 0.18  
Year to date precipitation 12.78  
Sea Level Pressure  
Sea Level Pressure 30.14 in    
Wind  
Wind Speed 9 mph (WSW)    
Max Wind Speed 17 mph    
Max Gust Speed 22 mph    
Visibility 10 miles    
Events      
T = Trace of Precipitation, MM = Missing Value Source: NWS Daily Summary

Daily Weather History Graph

Daily Weather History Graph

Search for Another Location

Airport:

Trip Planner

Search our weather history database for the weather conditions in past years. The results will help you decide how hot, cold, wet, or windy it might be!

Date:

Astronomy

Nov. 06, 2012 Rise Set
Actual Time 6:27 AM MST 4:53 PM MST
Civil Twilight 6:00 AM MST 5:21 PM MST
Nautical Twilight 5:29 AM MST 5:52 PM MST
Astronomical Twilight 4:58 AM MST 6:22 PM MST
Moon 11:33 PM MST (11/6) 12:22 PM MST (11/6)
Length of Visible Light 11h 20m
Length of Day
10h 26m
Waning Gibbous, 52% of the Moon is Illuminated
Nov 6
Waning Gibbous
Nov 6
Last Quarter
Nov 13
New
Nov 20
First Quarter
Nov 28
Full

Hourly Weather History & Observations

Time (MST) Temp. Windchill Dew Point Humidity Pressure Visibility Wind Dir Wind Speed Gust Speed Precip Events Conditions
12:54 AM 44.1 °F 37.7 °F 21.0 °F 40% 30.10 in 10.0 mi WSW 12.7 mph - N/A   Clear
1:54 AM 42.1 °F 35.2 °F 21.0 °F 43% 30.12 in 10.0 mi WSW 12.7 mph - N/A   Clear
2:54 AM 42.1 °F 34.9 °F 21.0 °F 43% 30.11 in 10.0 mi WSW 13.8 mph - N/A   Clear
3:54 AM 41.0 °F 33.5 °F 21.0 °F 45% 30.12 in 10.0 mi WSW 13.8 mph - N/A   Clear
4:54 AM 39.9 °F 32.9 °F 19.9 °F 45% 30.16 in 10.0 mi West 11.5 mph - N/A   Clear
5:54 AM 39.0 °F 32.3 °F 19.9 °F 46% 30.19 in 10.0 mi West 10.4 mph - N/A   Clear
6:54 AM 37.9 °F 32.7 °F 19.9 °F 48% 30.22 in 10.0 mi West 6.9 mph - N/A   Clear
7:54 AM 46.0 °F 41.4 °F 19.9 °F 35% 30.22 in 10.0 mi WNW 9.2 mph - N/A   Clear
8:54 AM 54.0 °F - 21.0 °F 28% 30.22 in 10.0 mi WNW 4.6 mph - N/A   Clear
9:54 AM 61.0 °F - 21.9 °F 22% 30.21 in 10.0 mi ENE 3.5 mph - N/A   Clear
10:54 AM 63.0 °F - 25.0 °F 24% 30.18 in 10.0 mi Variable 3.5 mph - N/A   Clear
11:54 AM 64.0 °F - 25.0 °F 23% 30.15 in 10.0 mi East 11.5 mph 18.4 mph N/A   Clear
12:54 PM 64.9 °F - 25.0 °F 22% 30.12 in 10.0 mi East 10.4 mph - N/A   Clear
1:54 PM 64.0 °F - 25.0 °F 23% 30.12 in 10.0 mi ESE 6.9 mph - N/A   Clear
2:54 PM 64.9 °F - 25.0 °F 22% 30.11 in 10.0 mi ENE 8.1 mph - N/A   Clear
3:54 PM 64.0 °F - 25.0 °F 23% 30.11 in 10.0 mi East 6.9 mph - N/A   Clear
4:54 PM 59.0 °F - 24.1 °F 26% 30.13 in 10.0 mi East 4.6 mph - N/A   Clear
5:54 PM 57.0 °F - 25.0 °F 29% 30.16 in 10.0 mi Calm Calm - N/A   Clear
6:54 PM 46.9 °F - 21.9 °F 37% 30.19 in 10.0 mi West 9.2 mph - N/A   Clear
7:54 PM 46.0 °F 41.0 °F 21.9 °F 39% 30.16 in 10.0 mi WSW 10.4 mph - N/A   Clear
8:54 PM 48.9 °F - 21.9 °F 35% 30.11 in 10.0 mi West 10.4 mph - N/A   Clear
9:54 PM 53.1 °F - 21.9 °F 30% 30.08 in 10.0 mi SW 12.7 mph 20.7 mph N/A   Clear
10:54 PM 52.0 °F - 21.9 °F 31% 30.07 in 10.0 mi SW 15.0 mph - N/A   Clear
11:54 PM 48.9 °F - 21.9 °F 35% 30.09 in 10.0 mi Calm Calm - N/A   Clear